Flag for U.S.A. Weather past 2 weeks in Des Moines, Iowa, U.S.A.

Now
72 °F

Mostly cloudy.


Feels Like: 76 °F
Forecast: 63 / 75 °F
Wind: 9 mph from East

Location: Des Moines International Airport

Current Time: Jul 1, 2015 at 8:57:54 PM

Latest Report: Jul 1, 2015 at 7:54 PM


Visibility: 10 mi

Pressure: 29.90 "Hg

Humidity: 61%

Dew point: 58 °F

Location of Des MoinesLocation

Historic Weather in Des Moines — Graph

°F

Des Moines temperature yesterday

Maximum temperature yesterday: 81 °F (at 1:54 PM)
Minimum temperature yesterday: 67 °F (at 4:54 AM)
Average temperature yesterday: 74 °F

Past Weeks' High & Low Weather Summary

 TemperatureHumidityPressure
High90 °F (Jun 20, 2:54 PM)93% (Jun 24, 10:54 PM)30.13 "Hg (Jun 24, 10:54 PM)
Low61 °F (Jun 27, 5:54 AM)37% (Jun 23, 2:54 PM)29.68 "Hg (Jun 20, 5:54 PM)
Average74 °F70%29.92 "Hg
* Reported Jun 16 7:54 PM — Jul 1 7:54 PM, Des Moines, Weather by CustomWeather, © 2015

Note: Actual official high and low records may vary slightly from our data, if they occured in-between our weather recording intervals... More about our weather records

Advertising

Des Moines weather history for previous 24 hours

 ConditionsComfort  
Time TempWeatherWind HumidityBarometerVisibility
7:54 PM
Wed, Jul 1
72 °FMostly cloudy.9 mph61%29.90 "Hg10 mi
6:54 PM73 °FCloudy.12 mph64%29.89 "Hg10 mi
5:54 PM75 °FCloudy.12 mph64%29.89 "Hg10 mi
4:54 PM75 °FMostly cloudy.6 mph64%29.89 "Hg10 mi
3:54 PM74 °FMostly cloudy.9 mph67%29.89 "Hg10 mi
2:54 PM75 °FPartly sunny.9 mph66%29.89 "Hg10 mi
1:54 PM74 °FMostly cloudy.10 mph69%29.90 "Hg10 mi
12:54 PM75 °FCloudy.7 mph66%29.90 "Hg10 mi
11:54 AM71 °FLight rain. Mostly cloudy.6 mph76%29.88 "Hg10 mi
10:54 AM72 °FMostly cloudy.5 mph71%29.92 "Hg10 mi
9:54 AM70 °FMostly cloudy.13 mph73%29.87 "Hg10 mi
8:54 AM69 °FMostly cloudy.12 mph76%29.88 "Hg9 mi
7:54 AM69 °FPartly sunny.7 mph76%29.89 "Hg8 mi
6:54 AM68 °FBroken clouds.7 mph78%29.87 "Hg8 mi
5:54 AM67 °FPartly cloudy.7 mph81%29.87 "Hg7 mi
4:54 AM68 °FPassing clouds.8 mph82%29.86 "Hg8 mi
3:54 AM69 °FPassing clouds.8 mph79%29.85 "Hg8 mi
2:54 AM70 °FPartly cloudy.6 mph79%29.88 "Hg8 mi
1:54 AM72 °FOvercast.7 mph76%29.88 "Hg8 mi
12:54 AM73 °FMostly cloudy.5 mph74%29.88 "Hg8 mi
10:54 PM
Tue, Jun 30
75 °FOvercast.3 mph69%29.87 "Hg8 mi
9:54 PM76 °FOvercast.3 mph67%29.88 "Hg9 mi
8:54 PM77 °FMore clouds than sun.3 mph64%29.86 "Hg8 mi
Weather by CustomWeather, © 2015

See weather overviewHow to use our weather pages